Flag for France Weather past 2 weeks in Rouen, France

Now
54 °F

Overcast.


Feels Like: 53 °F
Forecast: 44 / 62 °F
Wind: 3 mph from South

Location: Rouen Airport

Current Time: Oct 25, 2014 at 3:45:57 AM

Latest Report: Oct 25, 2014 at 3:00 AM


Visibility: 4 mi

Pressure: 30.04 "Hg

Humidity: 94%

Dew point: 52 °F

Location of RouenLocation

Historic Weather in Rouen — Graph

°F

Rouen temperature yesterday

Maximum temperature yesterday: 55 °F (at 3:00 PM)
Minimum temperature yesterday: 50 °F (at 6:00 AM)
Average temperature yesterday: 52 °F

Past Weeks' High & Low Weather Summary

 TemperatureHumidityPressure
High73 °F (Oct 18, 2:00 PM)100% (Oct 11, 1:30 AM)30.33 "Hg (Oct 11, 1:30 AM)
Low41 °F (Oct 22, 7:00 AM)55% (Oct 22, 3:00 PM)29.47 "Hg (Oct 13, 2:30 AM)
Average56 °F85%29.93 "Hg
* Reported Oct 10 3:00 AM — Oct 25 3:00 AM, Rouen, Weather by CustomWeather, © 2014

Note: Actual official high and low records may vary slightly from our data, if they occured in-between our weather recording intervals... More about our weather records

Advertising

Rouen weather history for previous 24 hours

 ConditionsComfort  
Time TempWeatherWind HumidityBarometerVisibility
3:00 AM
Oct 25
54 °FOvercast.3 mph94%30.04 "Hg4 mi
2:30 AM54 °FFog.3 mph94%30.04 "Hg3 mi
2:00 AM54 °FMostly cloudy.3 mph94%30.04 "Hg4 mi
1:30 AM54 °FOvercast.3 mph94%30.07 "Hg4 mi
1:00 AM54 °FFog.6 mph94%30.04 "Hg3 mi
12:30 AM54 °FLight rain. Fog.6 mph94%30.04 "Hg2 mi
12:00 AM54 °FMostly cloudy.7 mph94%30.07 "HgN/A
11:30 PM
Oct 24
54 °FMostly cloudy.6 mph94%30.07 "Hg4 mi
11:00 PM54 °FMostly cloudy.5 mph94%30.04 "Hg5 mi
10:30 PM54 °FOvercast.6 mph88%30.04 "HgN/A
10:00 PM54 °FOvercast.7 mph88%30.04 "HgN/A
9:30 PM54 °FOvercast.7 mph94%30.04 "Hg6 mi
9:00 PM54 °FOvercast.8 mph94%30.04 "Hg4 mi
8:30 PM54 °FMostly cloudy.8 mph94%30.04 "Hg5 mi
8:00 PM52 °FMostly cloudy.9 mph100%30.04 "Hg5 mi
7:30 PM52 °FMostly cloudy.10 mph100%30.04 "Hg4 mi
7:00 PM52 °FDrizzle. Low clouds.9 mph100%30.04 "Hg5 mi
6:30 PM52 °FDrizzle. Fog.10 mph100%30.04 "Hg1 mi
6:00 PM52 °FCloudy.9 mph100%30.04 "Hg5 mi
5:30 PM52 °FLight rain. Partly sunny.12 mph100%30.04 "Hg4 mi
5:00 PM52 °FRain. Fog.12 mph100%30.04 "Hg2 mi
4:30 PM54 °FLight rain. Fog.12 mph94%30.04 "Hg3 mi
4:00 PM54 °FLight rain. Fog.12 mph94%30.04 "Hg2 mi
3:30 PM54 °FDrizzle. Overcast.10 mph94%30.04 "Hg6 mi
3:00 PM55 °FMostly cloudy.13 mph88%30.04 "HgN/A
2:30 PM54 °FMostly cloudy.10 mph88%30.07 "HgN/A
2:00 PM54 °FMostly cloudy.9 mph88%30.07 "HgN/A
1:30 PM54 °FMostly cloudy.10 mph88%30.07 "Hg4 mi
1:00 PM52 °FFog.10 mph94%30.09 "Hg2 mi
12:30 PM52 °FOvercast.9 mph94%30.09 "HgN/A
12:00 PM52 °FDrizzle. Overcast.12 mph94%30.09 "HgN/A
11:30 AM52 °FMostly cloudy.12 mph94%30.09 "Hg6 mi
11:00 AM52 °FLight rain. Fog.12 mph94%30.09 "Hg3 mi
10:30 AM52 °FLight rain. Fog.13 mph94%30.09 "Hg1 mi
10:00 AM52 °FLight rain. Fog.9 mph94%30.09 "Hg2 mi
9:30 AM52 °FDrizzle. Fog.12 mph94%30.09 "Hg2 mi
9:00 AM52 °FDrizzle. Mostly cloudy.10 mph94%30.09 "HgN/A
8:30 AM52 °FDrizzle. Overcast.10 mph88%30.09 "Hg5 mi
8:00 AM52 °FOvercast.10 mph88%30.09 "HgN/A
7:30 AM52 °FOvercast.9 mph88%30.09 "HgN/A
7:00 AM52 °FMostly cloudy.9 mph88%30.09 "HgN/A
6:30 AM50 °FPartly cloudy.7 mph94%30.09 "HgN/A
6:00 AM50 °FMostly cloudy.8 mph94%30.09 "HgN/A
5:30 AM52 °FPartly cloudy.9 mph88%30.12 "HgN/A
4:30 AM52 °FOvercast.7 mph88%30.12 "HgN/A
4:00 AM52 °FOvercast.6 mph88%30.12 "HgN/A
3:30 AM52 °FMostly cloudy.6 mph88%30.12 "HgN/A
3:00 AM52 °FOvercast.7 mph88%30.15 "HgN/A
Weather by CustomWeather, © 2014

See weather overviewHow to use our weather pages